Location: Newark
(13.8625°N, 100.5144°E)
Time: 17:48:01
(UTC+00:00)

LightSail 2 - Pass Details

Date: 15 May 2021
Orbit: 685 x 700 km, 24.0° (Epoch: 11 June)

Event Time Altitude Azimuth Distance (km) Brightness Sun altitude
Rises 13:43:42 0° 235° (SW) 3,056 8.7 -28.6°
Reaches altitude 10° 13:46:11 10° 229° (SW) 2,141 7.8 -29.1°
Enters shadow 13:47:20 17° 224° (SW) 1,738 7.2 -29.4°
